sat.trackr.live / text

‹ back to catalog

FLOCK 4BE-11

NORAD 60501 · 2024-149AK

PAYLOAD ACTIVE UNKNOWN

§ Identity

Operator
Country
US
Launch date
2024-08-16
Launch site
AFWTR
Launch vehicle
Mass (kg)
RCS (m²)

Purposes: earth_obs

External: N2YO · Heavens-Above · Gunter

§ Orbital elements

Epoch: 2026-09-19T12:16:04.417536Z

Period
93.11 min
Inclination
97.3642°
Eccentricity
0.0002374
Mean motion
15.46616489 rev/d
Perigee alt
425.0 km
Apogee alt
428.2 km
Semi-major
6,804.8 km
B*
6.3057e-4
RAAN
347.9630°
Arg perigee
286.0569°
Mean anomaly
74.0419°
Rev number
11,691

§ Raw data

FLOCK 4BE-111 60501U 24149AK  26262.51116224  .00031410  00000+0  63057-3 0  99942 60501  97.3642 347.9630 0002374 286.0569  74.0419 15.46616489116912

JSON: /api/v1/satellites/60501 · /tle

For live sub-satellite position, see the globe view (requires WebGL).

§ Visibility from observer

Set your observer location to see the next 7 days of passes ≥ 10°. The values pass through the URL so the page stays shareable.

No JS? Fill the form by hand. The geolocation button needs JavaScript.